Regional Weather Roundup
Issued by NWS

Home | Current Version | Previous Version | Text Only | Print | Product List | Glossary On
Versions: 1 2 3 4 5 6 7 8 9 10 11 12 13 14 15 16 17 18 19 20 21 22 23 24 25 26 27 28 29 30 31 32 33 34 35 36 37 38 39 40 41 42 43 44 45 46 47 48 49 50
000
ASUS43 KDTX 042201
RWRMI
MICHIGAN HOURLY REGIONAL WEATHER ROUNDUP
NATIONAL WEATHER SERVICE DETROIT/PONTIAC MI
600 PM EDT SAT JUL 04 2015

NOTE: "FAIR" INDICATES FEW OR NO CLOUDS BELOW 12,000 FEET WITH NO
SIGNIFICANT WEATHER AND/OR OBSTRUCTION TO VISIBILITY.

MIZ047>049-052>055-059>063-066>070-074>076-081>083-042300-
SOUTHEAST LOWER MICHIGAN

CITY           SKY/WX    TMP DP  RH WIND       PRES   REMARKS
ADRIAN         SUNNY     78  56  46 SW3       30.02R
ALMA           MOSUNNY   81  58  46 SW6       29.98S
ANN ARBOR      HAZE      78  57  48 CALM      30.00S VSB 1
BAD AXE        MOSUNNY   79  54  41 SW6       29.98S
CARO           SUNNY     79  58  49 SW7       29.97S
DETROIT CITY   SUNNY     77  52  41 E10       29.99S
DETROIT        MOSUNNY   80  55  42 SW7       30.00S
FLINT          SUNNY     81  56  42 W8        30.00S
GROSSE ILE     SUNNY     73  61  64 S8        29.99S
HILLSDALE      SUNNY     78  56  47 W3        30.02S
HOWELL         SUNNY     78  55  44 W7        30.01R

CITY           SKY/WX    TMP DP  RH WIND       PRES   REMARKS
JACKSON        SUNNY     77  58  51 VRB3      30.01S
LAMBERTVILLE   SUNNY     79  51  37 CALM      30.01S
LANSING        SUNNY     79  54  41 W8        30.01S
LAPEER         FAIR      80  51  36 W6        29.99F
MASON          SUNNY     76  55  47 W3        30.01R
MONROE         SUNNY     78  53  41 CALM      30.00S
MT. CLEMENS    SUNNY     76  56  50 S8        29.98S
PONTIAC        CLOUDY    78  56  46 VRB7      29.99F
PORT HOPE        N/A     68  61  78 E12       29.97S
PORT HURON     MOSUNNY   77  57  50 W7        29.99S
TRI CITIES     SUNNY     82  57  42 SW10      29.98S
MIDLAND        FAIR      82  59  45 SW6       29.96S
TROY           SUNNY     80  51  36 N6        30.01S
SAGINAW HB     SUNNY     81  52  36 SW9       29.97S
$$
MIZ043>046-050>051-056>058-064>065-071>073-077>080-042300-
SOUTHWEST LOWER MICHIGAN

CITY           SKY/WX    TMP DP  RH WIND       PRES   REMARKS
BATTLE CREEK   SUNNY     79  58  48 W5        30.02S
BENTON HARBOR  SUNNY     76  56  49 VRB5      30.01S
BIG RAPIDS     PTSUNNY   80  57  45 W10       29.98S
COLDWATER      SUNNY     77  51  40 CALM      30.02S
FREMONT        FAIR      78  56  46 W5        30.00R
HOLLAND        SUNNY     76  59  55 W9        30.02S
GRAND RAPIDS   PTSUNNY   80  59  48 W10       30.00S
IONIA          FAIR      80  57  45 SW6       29.99S
KALAMAZOO      SUNNY     79  57  46 VRB3      30.01S
LUDINGTON      MOSUNNY   71  61  70 W5        30.01S
MARSHALL       SUNNY     78  55  43 W5        30.01R
MOUNT PLEASANT SUNNY     81  59  46 SW9       29.97R
MUSKEGON       PTSUNNY   73  58  59 SW8       30.01S
SOUTH HAVEN    SUNNY     74  54  49 W6        30.02S
$$
MIZ016>042-042300-
NORTHERN LOWER MICHIGAN

CITY           SKY/WX    TMP DP  RH WIND       PRES   REMARKS
ALPENA         SUNNY     74  58  57 E7        29.98R
BEAVER ISLAND  SUNNY     73  58  59 W6        29.99S
BELLAIRE       SUNNY     78  53  40 NW5       29.98S
CADILLAC       PTSUNNY   78  61  57 N6        29.99S
CHARLEVOIX     SUNNY     73  58  59 W5        30.02S
FRANKFORT      SUNNY     78  56  47 W3        29.99F
GAYLORD        SUNNY     77  55  46 W8        30.00S
GRAYLING       SUNNY     79  55  43 W8        30.00R
HARBOR SPRINGS SUNNY     64  60  87 SW7       29.99S
HOUGHTON LAKE  MOSUNNY   80  56  43 N7        29.99R
MANISTEE       SUNNY     72  59  64 W7        30.01S
OSCODA         SUNNY     74  60  60 E9        29.96S
PELLSTON       MOSUNNY   75  57  53 NW6       29.99R
ROGERS CITY    SUNNY     71  60  68 N6        29.99S
TRAVERSE CITY  SUNNY     75  57  53 NE8       29.97S
$$
MIZ007>008-015-042300-
EASTERN UPPER MICHIGAN

CITY           SKY/WX    TMP DP  RH WIND       PRES   REMARKS
KINROSS        MOSUNNY   72  55  56 NW10      29.98S
MACKINAC ISLAN MOSUNNY   70  59  69 CALM      29.98S
NEWBERRY       SUNNY     72  56  57 NW3       29.98S
S. S. MARIE    MOSUNNY   70  53  54 NW8       29.98S
$$
MIZ004>006-011>014-085-042300-
CENTRAL UPPER MICHIGAN

CITY           SKY/WX    TMP DP  RH WIND       PRES   REMARKS
MANISTIQUE     SUNNY     69  58  67 SW7       29.98S
ESCANABA       SUNNY     73  57  56 S8        29.97F
MENOMINEE      MOSUNNY   73  61  64 SE7       29.97S
SAWYER-GWINN   SUNNY     68  57  68 NE7       30.00F
$$
MIZ001>003-009>011-084-042300-
WESTERN UPPER MICHIGAN

CITY           SKY/WX    TMP DP  RH WIND       PRES   REMARKS
IRON MOUNTAIN  MOSUNNY   79  58  48 S6        29.96F
HOUGHTON       MOSUNNY   64  55  72 E9        29.99S
COPPER HARBOR    N/A     69  55  60 VRB5      29.99S
IRONWOOD       PTSUNNY   77  55  47 NE6       29.92F
$$

ABBREVIATIONS USED IN REMARKS
   TC - TEMPERATURE IN CELSIUS
  WCI - WIND CHILL INDEX
   HX - HEAT INDEX
  VSB - VISIBILITY




USA.gov is the U.S. government's official web portal to all federal, state and local government web resources and services.